Phuket, Thailand

11:44 PM +07 on July 20, 2017 (GMT +0700)
Phuket International

Weather History for VTSP - November, 2013

Change the Weather History Date:

Wednesday, November 20, 2013

  Actual Average Record
Temperature  
Mean Temperature 78 °F -  
Max Temperature 84 °F 88 °F 93 °F (1997)
Min Temperature 71 °F 74 °F 71 °F (1999)
Cooling Degree Days 12    
Growing Degree Days 28 (Base 50)    
Moisture  
Dew Point 73 °F    
Average Humidity 83    
Maximum Humidity 94    
Minimum Humidity 73    
Precipitation  
Precipitation 0.43 in 0.14 in - ()
Sea Level Pressure  
Sea Level Pressure 29.82 in    
Wind  
Wind Speed 2 mph ()    
Max Wind Speed 12 mph    
Max Gust Speed -    
Visibility 5.1 miles    
Events Rain    
Averages and records for this station are not official NWS values.
T = Trace of Precipitation, MM = Missing Value Source: Averaged Metar Reports

Daily Weather History Graph

Daily Weather History Graph

Search for Another Location

Airport or City:

Trip Planner

Search our weather history database for the weather conditions in past years. The results will help you decide how hot, cold, wet, or windy it might be!

Date:

Astronomy

Nov. 20, 2013 Rise Set
Actual Time 6:20 AM +07 6:04 PM +07
Civil Twilight 5:58 AM +07 6:26 PM +07
Nautical Twilight 5:32 AM +07 6:51 PM +07
Astronomical Twilight 5:07 AM +07 7:17 PM +07
Moon 8:21 PM +07 8:19 AM +07
Length of Visible Light 12h 28m
Length of Day
11h 43m
Waning Gibbous, 94% of the Moon is Illuminated
Nov 20
Waning Gibbous
Nov 26
Last Quarter
Dec 3
New
Dec 9
First Quarter
Dec 17
Full

Hourly Weather History & Observations

Time (+07) Temp. Heat Index Dew Point Humidity Pressure Visibility Wind Dir Wind Speed Gust Speed Precip Events Conditions
12:00 AM 77.0 °F - 71.6 °F 83% 29.89 in 5.6 mi Calm Calm - N/A   Mostly Cloudy
12:30 AM 77.0 °F - 73.4 °F 89% 29.86 in 5.6 mi Calm Calm - N/A   Mostly Cloudy
1:00 AM 77 °F - 74 °F 90% 29.82 in 6 mi Calm Calm - -   Scattered Clouds
1:00 AM 77.0 °F - 71.6 °F 83% 29.86 in 5.6 mi Calm Calm - N/A   Mostly Cloudy
1:30 AM 75.2 °F - 71.6 °F 89% 29.86 in 5.6 mi Calm Calm - N/A   Mostly Cloudy
2:00 AM 75.2 °F - 73.4 °F 94% 29.83 in 5.6 mi Calm Calm - N/A   Mostly Cloudy
3:00 AM 75.2 °F - 71.6 °F 89% 29.83 in 5.6 mi Calm Calm - N/A   Mostly Cloudy
3:30 AM 75.2 °F - 71.6 °F 89% 29.83 in 5.6 mi Calm Calm - N/A   Mostly Cloudy
4:00 AM 76 °F - 74 °F 90% 29.78 in 6 mi Calm Calm - -   Scattered Clouds
4:00 AM 75.2 °F - 71.6 °F 89% 29.80 in 5.6 mi East 2.3 mph - N/A   Mostly Cloudy
4:30 AM 75.2 °F - 71.6 °F 89% 29.80 in 5.6 mi East 3.5 mph - N/A   Mostly Cloudy
5:00 AM 75.2 °F - 71.6 °F 89% 29.80 in 5.6 mi Calm Calm - N/A   Mostly Cloudy
5:30 AM 75.2 °F - 71.6 °F 89% 29.83 in 5.6 mi Calm Calm - N/A   Mostly Cloudy
6:00 AM 75.2 °F - 71.6 °F 89% 29.83 in 5.6 mi Variable 2.3 mph - N/A   Mostly Cloudy
6:30 AM 75.2 °F - 73.4 °F 94% 29.83 in 5.6 mi NE 3.5 mph - N/A   Mostly Cloudy
7:00 AM 77 °F - 73 °F 85% 29.80 in 6 mi Calm Calm - -   Scattered Clouds
7:00 AM 77.0 °F - 73.4 °F 89% 29.83 in 5.6 mi Calm Calm - N/A   Mostly Cloudy
7:30 AM 77.0 °F - 73.4 °F 89% 29.86 in 5.6 mi Calm Calm - N/A   Mostly Cloudy
8:00 AM 78.8 °F - 73.4 °F 83% 29.86 in 5.6 mi Calm Calm - N/A   Mostly Cloudy
8:30 AM 77.0 °F - 73.4 °F 89% 29.89 in 1.2 mi East 3.5 mph - N/A Rain Heavy Rain
9:00 AM 77.0 °F - 73.4 °F 89% 29.89 in 4.3 mi Variable 5.8 mph - N/A Rain Light Rain
9:30 AM 78.8 °F - 75.2 °F 89% 29.89 in 5.0 mi Calm Calm - N/A   Mostly Cloudy
10:00 AM 80 °F - 77 °F 87% 29.86 in 6 mi Calm Calm - - Rain Light Rain
10:00 AM 80.6 °F 85.4 °F 73.4 °F 79% 29.89 in 5.0 mi East 5.8 mph - N/A   Mostly Cloudy
10:30 AM 80.6 °F 85.4 °F 73.4 °F 79% 29.89 in 5.0 mi East 8.1 mph - N/A   Mostly Cloudy
11:00 AM 80.6 °F 86.2 °F 75.2 °F 84% 29.89 in 5.0 mi ESE 8.1 mph - N/A   Mostly Cloudy
11:30 AM 82.4 °F 89.5 °F 75.2 °F 79% 29.89 in 5.0 mi ESE 6.9 mph - N/A   Mostly Cloudy
12:00 PM 82.4 °F 88.2 °F 73.4 °F 74% 29.86 in 5.0 mi East 8.1 mph - N/A   Mostly Cloudy
12:30 PM 82.4 °F 88.2 °F 73.4 °F 74% 29.86 in 5.0 mi ESE 8.1 mph - N/A   Mostly Cloudy
1:00 PM 82 °F - 75 °F 73% 29.81 in 5 mi WNW 11.5 mph - - Rain Light Rain
1:00 PM 80.6 °F 85.4 °F 73.4 °F 79% 29.83 in 4.3 mi East 8.1 mph - N/A   Mostly Cloudy
1:30 PM 80.6 °F 85.4 °F 73.4 °F 79% 29.83 in 5.0 mi East 8.1 mph - N/A   Mostly Cloudy
2:00 PM 80.6 °F 85.4 °F 73.4 °F 79% 2.95 in 5.0 mi East 6.9 mph - N/A   Mostly Cloudy
2:30 PM 80.6 °F 85.4 °F 73.4 °F 79% 29.77 in 5.0 mi East 6.9 mph - N/A   Mostly Cloudy
3:00 PM 80.6 °F 85.4 °F 73.4 °F 79% 29.77 in 5.0 mi East 8.1 mph - N/A   Mostly Cloudy
3:30 PM 80.6 °F 85.4 °F 73.4 °F 79% 29.77 in 5.0 mi ENE 5.8 mph - N/A   Mostly Cloudy
4:00 PM 81 °F - 74 °F 75% 29.73 in 6 mi Calm Calm - - Rain Light Rain
4:00 PM 80.6 °F 84.6 °F 71.6 °F 74% 29.74 in 5.0 mi ENE 5.8 mph - N/A   Mostly Cloudy
4:30 PM 80.6 °F 85.4 °F 73.4 °F 79% 29.74 in 4.3 mi ENE 5.8 mph - N/A   Mostly Cloudy
5:00 PM 80.6 °F 85.4 °F 73.4 °F 79% 29.77 in 4.3 mi NE 5.8 mph - N/A   Mostly Cloudy
5:30 PM 78.8 °F - 73.4 °F 83% 29.77 in 4.3 mi ENE 5.8 mph - N/A   Mostly Cloudy
6:00 PM 78.8 °F - 73.4 °F 83% 29.77 in 4.3 mi ENE 6.9 mph - N/A   Mostly Cloudy
6:30 PM 78.8 °F - 71.6 °F 78% 29.77 in 4.3 mi NE 3.5 mph - N/A   Mostly Cloudy
7:00 PM 79 °F - 74 °F 82% 29.75 in 6 mi ENE 8.1 mph - -   Partly Cloudy
7:00 PM 78.8 °F - 71.6 °F 78% 29.77 in 4.3 mi NE 4.6 mph - N/A   Mostly Cloudy
7:30 PM 78.8 °F - 71.6 °F 78% 29.80 in 5.0 mi NE 4.6 mph - N/A   Mostly Cloudy
8:00 PM 78.8 °F - 71.6 °F 78% 29.80 in 5.0 mi ENE 6.9 mph - N/A   Mostly Cloudy
9:00 PM 78.8 °F - 69.8 °F 74% 29.83 in 5.0 mi ENE 4.6 mph - N/A   Mostly Cloudy
9:30 PM 77.0 °F - 71.6 °F 83% 29.83 in 5.0 mi ENE 3.5 mph - N/A   Mostly Cloudy
10:00 PM 78 °F - 73 °F 80% 29.78 in 6 mi Calm Calm - -   Overcast
10:00 PM 77.0 °F - 71.6 °F 83% 29.83 in 5.0 mi Variable 2.3 mph - N/A   Mostly Cloudy
10:30 PM 77.0 °F - 71.6 °F 83% 29.83 in 5.0 mi Variable 2.3 mph - N/A   Mostly Cloudy
11:00 PM 77.0 °F - 71.6 °F 83% 29.83 in 5.0 mi NE 4.6 mph - N/A   Mostly Cloudy
11:30 PM 77.0 °F - 71.6 °F 83% 29.83 in 5.0 mi Variable 1.2 mph - N/A   Mostly Cloudy